Location: Alsip
(41.6689°N, 87.7387°W)
Time: 15:15:50
(UTC+00:00)

Cosmos 1153 Rocket - Pass Details

Date: 14 July 2020
Orbit: 953 x 1007 km, 82.9° (Epoch: 13 August)

Event Time Altitude Azimuth Distance (km) Brightness Sun altitude
Exits shadow 06:31:30 58° 146° (SE) 1,114 4.5 -26.2°
Maximum altitude 06:32:33 69° 94° (E) 1,027 4.5 -26.2°
Drops below altitude 10° 06:38:40 10° 12° (NNE) 2,698 7.8 -26.0°
Sets 06:41:11 0° 10° (N) 3,644 8.9 -25.9°
